Location: Unspecified
(0.0000°N, 0.0000°E)
Time: 04:10:32
(UTC+00:00)

Orbcomm D8 (FM36) - Visible Passes

Search period start: 14 May 2026 00:00
Search period end: 24 May 2026 00:00
Orbit: 759 x 764 km, 45.0° (Epoch: 13 May)

Date Brightness Start Highest point End Pass type
(mag) Time Alt. Az. Time Alt. Az. Time Alt. Az.
14 May 9.0 05:29:07 10° SSW 05:34:25 59° SE 05:39:41 10° NE visible
15 May 9.6 04:48:13 11° SSW 04:53:00 39° SE 04:57:59 10° ENE visible
16 May 10.1 04:09:23 20° S 04:11:34 27° SE 04:16:02 10° ENE visible
16 May 10.9 18:25:40 10° WSW 18:28:22 14° SW 18:31:04 10° SSW visible
17 May 10.6 03:30:31 18° SE 03:30:31 18° SE 03:33:45 10° E visible
17 May 8.9 05:10:36 13° WSW 05:15:07 50° NW 05:20:18 10° NNE visible
18 May 8.4 04:31:42 39° SW 04:33:42 75° NW 04:39:03 10° NE visible
19 May 8.6 03:52:46 69° E 03:52:46 69° E 03:57:39 10° NE visible
20 May 10.5 03:13:46 25° ENE 03:13:46 25° ENE 03:16:03 10° ENE visible
20 May 10.1 04:53:49 15° WNW 04:55:53 18° NW 04:59:32 10° N visible
21 May 9.7 04:14:45 27° NW 04:14:45 27° NW 04:18:54 10° N visible
22 May 10.2 03:35:36 24° N 03:35:36 24° N 03:37:58 10° NNE visible
23 May 11.3 02:56:23 12° NNE 02:56:23 12° NNE 02:56:50 10° NNE visible
